Weather History for Atwater, CA

Change the Weather History Date:

Monday, October 7, 2013

  Actual Average (KMCE) Record (KMCE)
Temperature  
Mean Temperature 66 °F 66 °F  
Max Temperature 87 °F 82 °F 91 °F (2002)
Min Temperature 46 °F 51 °F 42 °F (2007)
Degree Days  
Heating Degree Days 0    
Month to date heating degree days  
Since 1 July heating degree days  
Cooling Degree Days 2    
Month to date cooling degree days  
Year to date cooling degree days  
Growing Degree Days 16 (Base 50)    
Moisture  
Dew Point 40 °F    
Average Humidity 53    
Maximum Humidity 87    
Minimum Humidity 13    
Precipitation  
Precipitation 0.00 in 0.02 in 1.13 in (1973)
Month to date precipitation 0.07  
Year to date precipitation 9.06  
Since 1 July precipitation 0.38  
Snow  
Snow 0.00 in - - ()
Month to date snowfall  
Since 1 July snowfall  
Since 1 September snowfall  
Snow Depth -    
Sea Level Pressure  
Sea Level Pressure 29.93 in    
Wind  
Wind Speed 4 mph (North)    
Max Wind Speed 12 mph    
Max Gust Speed -    
Visibility 10 miles    
Events      
T = Trace of Precipitation, MM = Missing Value Source: NWS Daily Summary

Daily Weather History Graph

Daily Weather History Graph

Search for Another Location

Airport:

Trip Planner

Search our weather history database for the weather conditions in past years. The results will help you decide how hot, cold, wet, or windy it might be!

Date:

Astronomy

Oct. 07, 2013 Rise Set
Actual Time 7:03 AM PDT 6:36 PM PDT
Civil Twilight 6:37 AM PDT 7:02 PM PDT
Nautical Twilight 6:06 AM PDT 7:32 PM PDT
Astronomical Twilight 5:36 AM PDT 8:02 PM PDT
Moon 9:54 AM PDT (10/7) 8:29 PM PDT (10/7)
Length of Visible Light 12h 24m
Length of Day
11h 32m
Waxing Crescent, 9% of the Moon is Illuminated
Oct 7
Waxing Crescent
Oct 11
First Quarter
Oct 18
Full
Oct 26
Last Quarter
Nov 3
New

Hourly Weather History & Observations

Time (PDT) Temp. Windchill Dew Point Humidity Pressure Visibility Wind Dir Wind Speed Gust Speed Precip Events Conditions
12:15 AM 57.2 °F - 41.0 °F 55% 29.98 in 10.0 mi North 5.8 mph - N/A   Clear
12:35 AM 57.2 °F - 41.0 °F 55% 29.98 in 10.0 mi North 4.6 mph - N/A   Clear
12:55 AM 57.2 °F - 41.0 °F 55% 29.98 in 10.0 mi North 3.5 mph - N/A   Clear
1:15 AM 55.4 °F - 41.0 °F 58% 29.98 in 10.0 mi Calm Calm - N/A   Clear
1:35 AM 57.2 °F - 39.2 °F 51% 29.98 in 10.0 mi NW 3.5 mph - N/A   Clear
1:55 AM 57.2 °F - 39.2 °F 51% 29.98 in 10.0 mi NW 4.6 mph - N/A   Clear
2:15 AM 57.2 °F - 41.0 °F 55% 29.98 in 10.0 mi NNW 4.6 mph - N/A   Clear
2:35 AM 55.4 °F - 41.0 °F 58% 29.97 in 10.0 mi NNW 4.6 mph - N/A   Clear
2:55 AM 55.4 °F - 41.0 °F 58% 29.97 in 10.0 mi North 3.5 mph - N/A   Clear
3:15 AM 53.6 °F - 39.2 °F 58% 29.96 in 10.0 mi North 4.6 mph - N/A   Clear
3:35 AM 51.8 °F - 39.2 °F 62% 29.96 in 10.0 mi Calm Calm - N/A   Clear
3:55 AM 50.0 °F - 42.8 °F 76% 29.96 in 10.0 mi Calm Calm - N/A   Clear
4:15 AM 50.0 °F - 44.6 °F 82% 29.96 in 10.0 mi East 3.5 mph - N/A   Clear
4:35 AM 46.4 °F 44.3 °F 41.0 °F 81% 29.95 in 10.0 mi ENE 4.6 mph - N/A   Clear
4:55 AM 46.4 °F - 41.0 °F 81% 29.96 in 10.0 mi Calm Calm - N/A   Clear
5:15 AM 46.4 °F - 42.8 °F 87% 29.96 in 10.0 mi Calm Calm - N/A   Clear
5:35 AM 46.4 °F 45.2 °F 42.8 °F 87% 29.96 in 10.0 mi SSW 3.5 mph - N/A   Clear
5:55 AM 50.0 °F - 42.8 °F 76% 29.96 in 10.0 mi Calm Calm - N/A   Clear
6:15 AM 50.0 °F - 42.8 °F 76% 29.95 in 10.0 mi Calm Calm - N/A   Clear
6:35 AM 48.2 °F - 42.8 °F 82% 29.96 in 10.0 mi Calm Calm - N/A   Clear
6:50 AM 48.2 °F - 42.8 °F 82% 29.95 in 10.0 mi Calm Calm - N/A   Mostly Cloudy
6:55 AM 48.2 °F - 42.8 °F 82% 29.95 in 10.0 mi SE 3.5 mph - N/A   Clear
7:45 AM 48.2 °F - 44.6 °F 87% 29.97 in 10.0 mi Calm Calm - N/A   Scattered Clouds
8:45 AM 57.2 °F - 42.8 °F 59% 29.97 in 10.0 mi Calm Calm - N/A   Scattered Clouds
9:45 AM 62.6 °F - 42.8 °F 48% 29.98 in 10.0 mi Calm Calm - N/A   Scattered Clouds
10:45 AM 71.6 °F - 37.4 °F 29% 29.97 in 10.0 mi Variable 4.6 mph - N/A   Partly Cloudy
11:45 AM 77.0 °F - 37.4 °F 24% 29.96 in 10.0 mi WNW 5.8 mph - N/A   Clear
12:45 PM 82.4 °F - 32.0 °F 16% 29.94 in 10.0 mi NNW 11.5 mph - N/A   Clear
1:45 PM 84.2 °F - 33.8 °F 16% 29.91 in 10.0 mi North 9.2 mph - N/A   Clear
2:45 PM 86.0 °F - 33.8 °F 15% 29.89 in 10.0 mi NNW 5.8 mph - N/A   Clear
3:45 PM 87.8 °F - 32.0 °F 14% 29.88 in 10.0 mi North 6.9 mph - N/A   Clear
4:45 PM 87.8 °F - 30.2 °F 13% 29.86 in 10.0 mi North 6.9 mph - N/A   Clear
5:45 PM 82.4 °F - 32.0 °F 16% 29.85 in 10.0 mi North 8.1 mph - N/A   Clear
6:50 PM 73.4 °F - 35.6 °F 25% 29.85 in 10.0 mi NW 5.8 mph - N/A   Clear
7:45 PM 69.8 °F - 37.4 °F 31% 29.85 in 10.0 mi North - - N/A   Clear
8:45 PM 64.4 °F - 39.2 °F 40% 29.85 in 10.0 mi Calm Calm - N/A   Clear
9:15 PM 64.4 °F - 39.2 °F 40% 29.86 in 10.0 mi North 3.5 mph - N/A   Clear
9:35 PM 62.6 °F - 37.4 °F 39% 29.86 in 10.0 mi NE 3.5 mph - N/A   Clear
9:55 PM 60.8 °F - 42.8 °F 52% 29.86 in 9.0 mi North - - N/A   Clear
10:15 PM 57.2 °F - 39.2 °F 51% 29.87 in 10.0 mi NE 3.5 mph - N/A   Clear
10:35 PM 57.2 °F - 41.0 °F 55% 29.87 in 10.0 mi NNE 3.5 mph - N/A   Clear
10:55 PM 60.8 °F - 41.0 °F 48% 29.87 in 10.0 mi NNE 5.8 mph - N/A   Clear
11:15 PM 57.2 °F - 39.2 °F 51% 29.87 in 10.0 mi NNE 5.8 mph - N/A   Clear
11:35 PM 55.4 °F - 37.4 °F 51% 29.87 in 10.0 mi NNE 4.6 mph - N/A   Clear
11:55 PM 55.4 °F - 37.4 °F 51% 29.87 in 10.0 mi NNE 5.8 mph - N/A   Clear